AJI9796 KADS-KOKC

Flight info

Callsign AJI9796
Flight time 0h 36m
Altitude 22000
Route NANDR3 ZEMMA TSDEL3
Aircraft B738/M-SDE2E3FGHIRWXY/LB1

Departure

Time 2026-05-08 00:00
Airport Addison Airport (KADS)

Arrival

Time 2026-05-08 00:36
Airport OKC Will Rogers World Airport (KOKC)
Time Latitude Longitude Altitude Speed Heading
2026-05-07 23:45 32.96241 -96.83221 652 ft 0 kts 69°
2026-05-07 23:52 32.96238 -96.83227 653 ft 2 kts 69°
2026-05-07 23:52 32.96231 -96.83244 651 ft 2 kts 51°
2026-05-07 23:53 32.96219 -96.83257 652 ft 2 kts 14°
2026-05-07 23:53 32.96207 -96.83257 651 ft 0 kts 339°
2026-05-07 23:54 32.96231 -96.83267 652 ft 10 kts 341°
2026-05-07 23:55 32.96319 -96.83302 651 ft 17 kts 341°
2026-05-07 23:55 32.96442 -96.83361 652 ft 20 kts 338°
2026-05-07 23:55 32.96573 -96.83419 652 ft 20 kts 340°
2026-05-07 23:55 32.96700 -96.83475 653 ft 19 kts 340°
2026-05-07 23:56 32.96822 -96.83529 651 ft 18 kts 338°
2026-05-07 23:56 32.96941 -96.83582 652 ft 18 kts 340°
2026-05-07 23:56 32.97055 -96.83632 652 ft 17 kts 340°
2026-05-07 23:56 32.97166 -96.83679 652 ft 17 kts 340°
2026-05-07 23:57 32.97273 -96.83726 653 ft 16 kts 339°
2026-05-07 23:57 32.97386 -96.83776 654 ft 18 kts 340°
2026-05-07 23:57 32.97513 -96.83830 652 ft 20 kts 339°
2026-05-07 23:57 32.97652 -96.83891 651 ft 22 kts 341°
2026-05-07 23:58 32.97768 -96.83945 651 ft 10 kts 330°
2026-05-07 23:58 32.97781 -96.83975 651 ft 4 kts 274°
2026-05-07 23:58 32.97778 -96.84006 654 ft 4 kts 257°
2026-05-07 23:58 32.97758 -96.84031 654 ft 5 kts 201°
2026-05-07 23:59 32.97712 -96.84019 652 ft 10 kts 159°
2026-05-07 23:59 32.97489 -96.83921 652 ft 69 kts 160°
2026-05-07 23:59 32.96820 -96.83628 651 ft 133 kts 160°
2026-05-07 23:59 32.95796 -96.83170 824 ft 171 kts 160°
2026-05-08 00:00 32.94681 -96.82662 1601 ft 171 kts 158°
2026-05-08 00:00 32.93574 -96.82353 2485 ft 165 kts 182°
2026-05-08 00:00 32.92478 -96.82927 2887 ft 191 kts 223°
2026-05-08 00:00 32.91783 -96.84390 3162 ft 219 kts 256°
2026-05-08 00:01 32.91961 -96.86252 3396 ft 241 kts 298°
2026-05-08 00:01 32.93092 -96.87763 3817 ft 253 kts 320°
2026-05-08 00:01 32.94508 -96.89146 4228 ft 270 kts 322°
2026-05-08 00:01 32.95974 -96.90558 5098 ft 269 kts 321°
2026-05-08 00:02 32.97417 -96.91966 6012 ft 268 kts 319°
2026-05-08 00:02 32.98847 -96.93382 6847 ft 268 kts 317°
2026-05-08 00:02 33.00284 -96.94823 7576 ft 271 kts 316°
2026-05-08 00:02 33.01734 -96.96287 8318 ft 274 kts 316°
2026-05-08 00:03 33.03192 -96.97768 9077 ft 276 kts 315°
2026-05-08 00:03 33.04662 -96.99265 9834 ft 279 kts 314°
2026-05-08 00:03 33.06148 -97.00782 10402 ft 288 kts 314°
2026-05-08 00:03 33.07731 -97.02396 10563 ft 312 kts 317°
2026-05-08 00:04 33.09670 -97.03715 10718 ft 341 kts 335°
2026-05-08 00:04 33.12074 -97.04240 11105 ft 361 kts 353°
2026-05-08 00:04 33.14605 -97.04210 11762 ft 365 kts 356°
2026-05-08 00:04 33.17153 -97.04133 12476 ft 367 kts 355°
2026-05-08 00:05 33.19714 -97.04088 12908 ft 369 kts 355°
2026-05-08 00:05 33.22273 -97.04069 12978 ft 368 kts 354°
2026-05-08 00:05 33.24829 -97.04174 12984 ft 366 kts 347°
2026-05-08 00:05 33.27296 -97.04841 13405 ft 363 kts 338°
2026-05-08 00:06 33.29718 -97.05686 14156 ft 363 kts 338°
2026-05-08 00:06 33.32163 -97.06534 14806 ft 366 kts 338°
2026-05-08 00:06 33.33791 -97.07094 15187 ft 370 kts 338°
2026-05-08 00:06 33.36283 -97.07943 15767 ft 375 kts 338°
2026-05-08 00:07 33.38805 -97.08795 16353 ft 379 kts 338°
2026-05-08 00:07 33.41365 -97.09658 16938 ft 384 kts 338°
2026-05-08 00:07 33.44855 -97.10601 17703 ft 397 kts 347°
2026-05-08 00:07 33.46741 -97.10736 18088 ft 405 kts 354°
2026-05-08 00:08 33.49581 -97.10489 18669 ft 412 kts 359°
2026-05-08 00:08 33.52434 -97.10113 19293 ft 413 kts 360°
2026-05-08 00:08 33.55254 -97.09717 19844 ft 415 kts 360°
2026-05-08 00:08 33.58135 -97.09316 20388 ft 418 kts 359°
2026-05-08 00:09 33.61028 -97.08922 20912 ft 420 kts 359°
2026-05-08 00:09 33.63946 -97.08536 21444 ft 422 kts 358°
2026-05-08 00:09 33.66872 -97.08157 21969 ft 424 kts 358°
2026-05-08 00:09 33.69819 -97.07779 22039 ft 426 kts 358°
2026-05-08 00:10 33.72762 -97.07404 22059 ft 427 kts 358°
2026-05-08 00:10 33.75720 -97.07028 22073 ft 427 kts 358°
2026-05-08 00:10 33.78664 -97.06651 22040 ft 423 kts 358°
2026-05-08 00:10 33.81574 -97.06278 22038 ft 419 kts 358°
2026-05-08 00:11 33.84469 -97.05908 22040 ft 418 kts 358°
2026-05-08 00:11 33.87365 -97.05540 22040 ft 418 kts 358°
2026-05-08 00:11 33.90263 -97.05173 22033 ft 418 kts 358°
2026-05-08 00:11 33.93135 -97.04809 22037 ft 420 kts 358°
2026-05-08 00:12 33.96046 -97.04439 22040 ft 421 kts 358°
2026-05-08 00:12 33.98970 -97.04067 22037 ft 423 kts 358°
2026-05-08 00:12 34.01903 -97.03692 22062 ft 424 kts 358°
2026-05-08 00:12 34.04844 -97.03316 22032 ft 426 kts 358°
2026-05-08 00:13 34.07791 -97.02938 22026 ft 426 kts 358°
2026-05-08 00:13 34.10734 -97.02560 22025 ft 425 kts 358°
2026-05-08 00:13 34.13677 -97.02181 22025 ft 425 kts 358°
2026-05-08 00:13 34.16612 -97.01804 22017 ft 424 kts 358°
2026-05-08 00:14 34.19549 -97.01426 22017 ft 423 kts 358°
2026-05-08 00:14 34.22481 -97.01050 22024 ft 422 kts 358°
2026-05-08 00:14 34.25400 -97.00674 22009 ft 422 kts 358°
2026-05-08 00:14 34.28322 -97.00299 22039 ft 421 kts 358°
2026-05-08 00:15 34.31241 -96.99923 22019 ft 422 kts 358°
2026-05-08 00:15 34.34123 -96.99553 22030 ft 422 kts 358°
2026-05-08 00:15 34.37011 -96.99269 21996 ft 404 kts 349°
2026-05-08 00:15 34.39648 -96.99831 21982 ft 371 kts 333°
2026-05-08 00:16 34.41934 -97.01109 21681 ft 355 kts 324°
2026-05-08 00:16 34.44106 -97.02522 21262 ft 353 kts 324°
2026-05-08 00:16 34.46257 -97.03930 20868 ft 350 kts 324°
2026-05-08 00:16 34.48392 -97.05322 20436 ft 347 kts 324°
2026-05-08 00:17 34.50518 -97.06699 20023 ft 345 kts 325°
2026-05-08 00:17 34.52634 -97.08065 19603 ft 344 kts 325°
2026-05-08 00:17 34.54745 -97.09421 19167 ft 343 kts 326°
2026-05-08 00:17 34.56855 -97.10776 18748 ft 342 kts 326°
2026-05-08 00:18 34.58955 -97.12123 18310 ft 342 kts 327°
2026-05-08 00:18 34.61056 -97.13469 17833 ft 340 kts 327°
2026-05-08 00:18 34.63147 -97.14809 17404 ft 339 kts 327°
2026-05-08 00:18 34.65219 -97.16138 16979 ft 336 kts 327°
2026-05-08 00:19 34.67260 -97.17448 16567 ft 334 kts 327°
2026-05-08 00:19 34.69310 -97.18764 16168 ft 332 kts 327°
2026-05-08 00:19 34.71355 -97.20079 15743 ft 330 kts 327°
2026-05-08 00:19 34.73381 -97.21381 15340 ft 328 kts 327°
2026-05-08 00:20 34.75396 -97.22677 14937 ft 327 kts 327°
2026-05-08 00:20 34.77398 -97.23966 14539 ft 325 kts 327°
2026-05-08 00:20 34.79376 -97.25299 14083 ft 326 kts 326°
2026-05-08 00:20 34.81284 -97.26725 13624 ft 326 kts 325°
2026-05-08 00:21 34.83193 -97.28183 13359 ft 319 kts 325°
2026-05-08 00:21 34.85048 -97.29590 13199 ft 310 kts 325°
2026-05-08 00:21 34.86855 -97.30949 13063 ft 300 kts 325°
2026-05-08 00:21 34.88608 -97.32264 12920 ft 292 kts 325°
2026-05-08 00:22 34.90317 -97.33548 12684 ft 287 kts 325°
2026-05-08 00:22 34.92006 -97.34832 12378 ft 285 kts 324°
2026-05-08 00:22 34.93686 -97.36112 12080 ft 283 kts 324°
2026-05-08 00:22 34.95352 -97.37382 11774 ft 282 kts 324°
2026-05-08 00:23 34.97010 -97.38646 11466 ft 281 kts 324°
2026-05-08 00:23 34.98664 -97.39908 11163 ft 279 kts 324°
2026-05-08 00:23 35.00307 -97.41161 10860 ft 279 kts 324°
2026-05-08 00:23 35.01949 -97.42413 10540 ft 278 kts 324°
2026-05-08 00:24 35.03590 -97.43666 10271 ft 277 kts 325°
2026-05-08 00:24 35.05178 -97.44877 10149 ft 269 kts 325°
2026-05-08 00:24 35.06748 -97.46068 9980 ft 264 kts 327°
2026-05-08 00:24 35.08498 -97.46768 9669 ft 269 kts 352°
2026-05-08 00:25 35.10363 -97.46889 9409 ft 268 kts 354°
2026-05-08 00:25 35.12224 -97.46990 9116 ft 267 kts 354°
2026-05-08 00:25 35.14074 -97.47099 8839 ft 265 kts 354°
2026-05-08 00:25 35.15915 -97.47213 8559 ft 264 kts 354°
2026-05-08 00:26 35.17748 -97.47330 8291 ft 263 kts 354°
2026-05-08 00:26 35.19571 -97.47446 8022 ft 262 kts 355°
2026-05-08 00:26 35.21389 -97.47562 7749 ft 261 kts 355°
2026-05-08 00:26 35.23201 -97.47678 7526 ft 258 kts 355°
2026-05-08 00:27 35.24966 -97.47790 7414 ft 251 kts 355°
2026-05-08 00:27 35.26684 -97.47900 7301 ft 244 kts 355°
2026-05-08 00:27 35.28350 -97.48006 7199 ft 236 kts 355°
2026-05-08 00:27 35.29968 -97.48110 7028 ft 232 kts 355°
2026-05-08 00:28 35.31579 -97.48215 6800 ft 230 kts 355°
2026-05-08 00:28 35.33155 -97.48318 6574 ft 229 kts 355°
2026-05-08 00:28 35.34743 -97.48421 6333 ft 228 kts 355°
2026-05-08 00:28 35.36319 -97.48522 6170 ft 224 kts 355°
2026-05-08 00:29 35.37861 -97.48622 6056 ft 221 kts 355°
2026-05-08 00:29 35.39405 -97.48699 5914 ft 223 kts 358°
2026-05-08 00:29 35.40928 -97.48699 5788 ft 213 kts 358°
2026-05-08 00:29 35.42383 -97.48692 5612 ft 208 kts 358°
2026-05-08 00:30 35.43816 -97.48688 5459 ft 204 kts 358°
2026-05-08 00:30 35.45232 -97.48687 5328 ft 204 kts 358°
2026-05-08 00:30 35.46652 -97.48723 5192 ft 204 kts 355°
2026-05-08 00:30 35.48074 -97.48803 5061 ft 205 kts 354°
2026-05-08 00:31 35.49503 -97.48894 4944 ft 206 kts 355°
2026-05-08 00:31 35.50934 -97.48980 4829 ft 207 kts 355°
2026-05-08 00:31 35.52375 -97.49075 4724 ft 207 kts 354°
2026-05-08 00:31 35.53796 -97.49180 4579 ft 203 kts 350°
2026-05-08 00:32 35.54999 -97.49972 4200 ft 193 kts 301°
2026-05-08 00:32 35.55327 -97.51473 3993 ft 179 kts 264°
2026-05-08 00:32 35.55042 -97.52919 3866 ft 177 kts 242°
2026-05-08 00:32 35.54252 -97.54052 3719 ft 175 kts 218°
2026-05-08 00:33 35.53294 -97.54962 3582 ft 174 kts 219°
2026-05-08 00:33 35.52344 -97.55878 3451 ft 174 kts 218°
2026-05-08 00:33 35.51386 -97.56797 3297 ft 175 kts 218°
2026-05-08 00:33 35.50423 -97.57716 3159 ft 175 kts 218°
2026-05-08 00:34 35.49431 -97.58594 2994 ft 178 kts 205°
2026-05-08 00:34 35.48228 -97.58819 2820 ft 173 kts 181°
2026-05-08 00:34 35.47062 -97.58877 2574 ft 161 kts 183°
2026-05-08 00:34 35.45960 -97.58892 2375 ft 157 kts 182°
2026-05-08 00:35 35.44850 -97.58893 2183 ft 161 kts 181°
2026-05-08 00:35 35.43734 -97.58893 1954 ft 159 kts 180°
2026-05-08 00:35 35.42665 -97.58890 1768 ft 152 kts 181°
2026-05-08 00:35 35.41610 -97.58892 1555 ft 150 kts 180°
2026-05-08 00:36 35.40556 -97.58886 1348 ft 151 kts 181°
2026-05-08 00:36 35.39570 -97.58894 1294 ft 121 kts 180°
2026-05-08 00:36 35.38935 -97.58896 1295 ft 64 kts 179°
2026-05-08 00:36 35.38634 -97.58894 1293 ft 30 kts 182°
2026-05-08 00:37 35.38553 -97.58973 1294 ft 14 kts 250°
2026-05-08 00:37 35.38582 -97.59055 1294 ft 11 kts 340°
2026-05-08 00:37 35.38662 -97.59058 1293 ft 12 kts 359°
2026-05-08 00:38 35.38873 -97.59064 1293 ft 17 kts 359°
2026-05-08 00:38 35.38989 -97.59063 1294 ft 17 kts
2026-05-08 00:38 35.39119 -97.59061 1293 ft 20 kts
2026-05-08 00:38 35.39203 -97.59081 1293 ft 10 kts 313°
2026-05-08 00:39 35.39215 -97.59159 1294 ft 10 kts 271°
2026-05-08 00:39 35.39248 -97.59221 1295 ft 10 kts 350°
2026-05-08 00:39 35.39332 -97.59224 1295 ft 14 kts 356°
2026-05-08 00:39 35.39383 -97.59303 1296 ft 14 kts 271°
2026-05-08 00:40 35.39419 -97.59402 1299 ft 14 kts 320°
2026-05-08 00:40 35.39477 -97.59472 1300 ft 7 kts 311°
2026-05-08 00:40 35.39487 -97.59485 1300 ft 0 kts 312°